Location: Tel Aviv
(32.0670°N, 34.7670°E)
Time: 11:24:28
(UTC+02:00)

Hubble Space Telescope - Visible Passes

Search period start: 01 December 2021 00:00
Search period end: 11 December 2021 00:00
Orbit: 534 x 538 km, 28.5° (Epoch: 30 November)

Date Brightness Start Highest point End Pass type
(mag) Time Alt. Az. Time Alt. Az. Time Alt. Az.
01 Dec 1.3 04:28:54 48° S 04:28:54 48° S 04:32:40 10° ESE visible
02 Dec 1.9 04:18:26 38° SSE 04:18:26 38° SSE 04:21:27 10° ESE visible
02 Dec 2.5 05:55:04 10° WSW 05:58:18 23° SSW 06:01:34 10° SSE visible
03 Dec 2.5 04:07:57 28° SE 04:07:57 28° SE 04:10:13 10° ESE visible
03 Dec 2.7 05:44:09 10° WSW 05:47:05 19° SSW 05:50:00 10° SSE visible
04 Dec 3.1 03:57:30 20° SE 03:57:30 20° SE 03:58:57 10° SE visible
04 Dec 3.0 05:33:23 10° WSW 05:35:51 15° SSW 05:38:18 10° SSE visible
05 Dec 3.7 03:47:03 13° SE 03:47:03 13° SE 03:47:39 10° SE visible
05 Dec 3.1 05:22:52 10° SW 05:24:36 12° SSW 05:26:19 10° S visible
